Aduana, Mexico

10:13 PM on October 21, 2017 (GMT +0000)
Aduana

Weather History for 76590 - May, 2013

Change the Weather History Date:

Saturday, May 18, 2013

  Actual Average Record
Temperature  
Mean Temperature 82 °F -  
Max Temperature 86 °F 88 °F - ()
Min Temperature 78 °F 74 °F - ()
Cooling Degree Days 17    
Growing Degree Days 32 (Base 50)    
Moisture  
Dew Point 74 °F    
Average Humidity 76    
Maximum Humidity 89    
Minimum Humidity 66    
Precipitation  
Precipitation 0.00 in - - ()
Sea Level Pressure  
Sea Level Pressure 29.98 in    
Wind  
Wind Speed 9 mph ()    
Max Wind Speed 21 mph    
Max Gust Speed -    
Visibility 7.0 miles    
Events      
T = Trace of Precipitation, MM = Missing Value Source: Averaged Metar Reports

Daily Weather History Graph

Daily Weather History Graph

Search for Another Location

Airport or City:

Trip Planner

Search our weather history database for the weather conditions in past years. The results will help you decide how hot, cold, wet, or windy it might be!

Date:

Astronomy

May. 18, 2013 Rise Set
Actual Time 11:08 AM UTC 12:19 AM UTC
Civil Twilight 10:44 AM UTC 12:43 AM UTC
Nautical Twilight 10:16 AM UTC 1:11 AM UTC
Astronomical Twilight 9:47 AM UTC 1:41 AM UTC
Moon 6:11 PM UTC (5/18) 6:07 AM UTC (5/18)
Length of Visible Light 13h 58m
Length of Day
13h 10m
First Quarter, 53% of the Moon is Illuminated
May 18
First Quarter
May 25
Full
May 31
Last Quarter
Jun 8
New
Jun 16
First Quarter

Hourly Weather History & Observations

Time (GMT) Temp. Heat Index Dew Point Humidity Pressure Visibility Wind Dir Wind Speed Gust Speed Precip Events Conditions
12:42 AM 80.6 °F 85.4 °F 73.4 °F 79% 29.97 in 7.0 mi ESE 9.2 mph - N/A   Clear
1:41 AM 80.6 °F 84.6 °F 71.6 °F 74% 29.98 in 7.0 mi SE 8.1 mph - N/A   Clear
2:48 AM 80.6 °F 84.6 °F 71.6 °F 74% 29.96 in 7.0 mi ESE 12.7 mph - N/A   Clear
3:47 AM 80.6 °F 84.6 °F 71.6 °F 74% 30.00 in 7.0 mi ESE 8.1 mph - N/A   Clear
4:46 AM 80.6 °F 85.4 °F 73.4 °F 79% 30.00 in 7.0 mi SE 6.9 mph - N/A   Clear
5:45 AM 80.6 °F 85.4 °F 73.4 °F 79% 29.97 in 7.0 mi SE 9.2 mph - N/A   Clear
6:44 AM 80.6 °F 85.4 °F 73.4 °F 79% 29.97 in 7.0 mi ESE 9.2 mph - N/A   Partly Cloudy
7:43 AM 80.6 °F 85.4 °F 73.4 °F 79% 29.96 in 7.0 mi ESE 8.1 mph - N/A   Scattered Clouds
8:46 AM 78.8 °F - 73.4 °F 83% 29.93 in 7.0 mi ESE 5.8 mph - N/A   Scattered Clouds
9:45 AM 78.8 °F - 73.4 °F 83% 29.96 in 7.0 mi SE 5.8 mph - N/A   Scattered Clouds
10:44 AM 78.8 °F - 75.2 °F 89% 29.98 in 7.0 mi East 5.8 mph - N/A   Scattered Clouds
11:43 AM 80.6 °F 86.2 °F 75.2 °F 84% 29.96 in 7.0 mi East 6.9 mph - N/A   Scattered Clouds
12:41 PM 82.4 °F 89.5 °F 75.2 °F 79% 30.00 in 7.0 mi East 10.4 mph - N/A   Mostly Cloudy
1:40 PM 84.2 °F 92.3 °F 75.2 °F 74% 30.00 in 7.0 mi East 10.4 mph - N/A   Mostly Cloudy
2:42 PM 84.2 °F 90.9 °F 73.4 °F 70% 30.01 in 7.0 mi ESE 10.4 mph - N/A   Mostly Cloudy
3:43 PM 84.2 °F 92.3 °F 75.2 °F 74% 30.01 in 7.0 mi East 10.4 mph - N/A   Mostly Cloudy
4:41 PM 84.2 °F 92.3 °F 75.2 °F 74% 30.01 in 7.0 mi East 9.2 mph - N/A   Mostly Cloudy
5:44 PM 86.0 °F 95.1 °F 75.2 °F 70% 30.00 in 7.0 mi ESE 15.0 mph - N/A   Mostly Cloudy
6:40 PM 86.0 °F 93.4 °F 73.4 °F 66% 29.99 in 7.0 mi East 16.1 mph - N/A   Mostly Cloudy
7:43 PM 86.0 °F 95.1 °F 75.2 °F 70% 29.96 in 7.0 mi SE 17.3 mph - N/A   Mostly Cloudy
8:40 PM 84.2 °F 92.3 °F 75.2 °F 74% 29.96 in 7.0 mi ESE 15.0 mph - N/A   Mostly Cloudy
9:40 PM 84.2 °F 90.9 °F 73.4 °F 70% 29.94 in 7.0 mi SE 20.7 mph - N/A   Mostly Cloudy
10:41 PM 82.4 °F 88.2 °F 73.4 °F 74% 29.94 in 7.0 mi SE 13.8 mph - N/A   Mostly Cloudy
11:43 PM 80.6 °F 85.4 °F 73.4 °F 79% 29.97 in 7.0 mi SE 13.8 mph - N/A   Mostly Cloudy